Retour au catalogue

STARLINK-31163

ActifCommunicationsVLEO
NORAD 58807·PAYLOAD·🇺🇸 United States

Lancé Jan 15, 2024 depuis Cape Canaveral Space Force Station

Loading…

Prochains Passages (prochaines 24 heures)

TLE

FraisSource: CelesTrak SupGP

Époque: Sep 15, 2026, 03:01 UTC

1 58807C 24012W   26258.12618056  .00060956  00000+0  21797-2 0  2580
2 58807  43.0000 175.0040 0001198 208.8151 110.1201 15.27967730    12

Suivez STARLINK-31163 en temps réel avec AllMySat

Download on the App Store